Montoursville, PA

9:36 AM EST on February 22, 2017 (GMT -0500)
Williamsport Rgnl

Weather History for KIPT - April, 2013

Change the Weather History Date:

Monday, April 29, 2013

  Actual Average Record
Temperature  
Mean Temperature 54 °F 55 °F  
Max Temperature 56 °F 66 °F 86 °F (1974)
Min Temperature 51 °F 43 °F 29 °F (2001)
Degree Days  
Heating Degree Days 11 11  
Month to date heating degree days 431 448  
Since 1 July heating degree days 5467 5744  
Cooling Degree Days 0 0  
Month to date cooling degree days 8 0  
Year to date cooling degree days 8 0  
Growing Degree Days 3 (Base 50)    
Moisture  
Dew Point 49 °F    
Average Humidity 73    
Maximum Humidity 96    
Minimum Humidity 50    
Precipitation  
Precipitation 0.24 in 0.11 in 1.06 in (1996)
Month to date precipitation 3.15 3.13  
Year to date precipitation 9.35 11.14  
Snow  
Snow 0.00 in 0.00 in 4.00 in (1909)
Month to date snowfall 0.0 1.1  
Since 1 July snowfall 32.7 36.0  
Snow Depth 0.00 in    
Sea Level Pressure  
Sea Level Pressure 30.10 in    
Wind  
Wind Speed 8 mph (East)    
Max Wind Speed 17 mph    
Max Gust Speed 24 mph    
Visibility 5 miles    
Events Rain    
T = Trace of Precipitation, MM = Missing Value Source: NWS Daily Summary

Daily Weather History Graph

Daily Weather History Graph

Search for Another Location

Airport or City:

Trip Planner

Search our weather history database for the weather conditions in past years. The results will help you decide how hot, cold, wet, or windy it might be!

Date:

Astronomy

Apr. 29, 2013 Rise Set
Actual Time 6:07 AM EDT 8:03 PM EDT
Civil Twilight 5:37 AM EDT 8:32 PM EDT
Nautical Twilight 5:01 AM EDT 9:09 PM EDT
Astronomical Twilight 4:22 AM EDT 9:49 PM EDT
Moon No Moon Rise 9:24 AM EDT (4/29)
Length of Visible Light 14h 55m
Length of Day
13h 55m
Waning Gibbous, 80% of the Moon is Illuminated
Apr 29
Waning Gibbous
May 2
Last Quarter
May 9
New
May 18
First Quarter
May 25
Full

Hourly Weather History & Observations

Time (EDT) Temp. Dew Point Humidity Pressure Visibility Wind Dir Wind Speed Gust Speed Precip Events Conditions
12:54 AM 55.0 °F 41.0 °F 59% 30.12 in 10.0 mi East 12.7 mph 19.6 mph N/A   Overcast
1:54 AM 54.0 °F 37.9 °F 55% 30.11 in 10.0 mi ESE 6.9 mph 18.4 mph N/A   Overcast
2:54 AM 54.0 °F 36.0 °F 51% 30.09 in 10.0 mi SE 12.7 mph 21.9 mph N/A   Overcast
3:54 AM 54.0 °F 35.1 °F 49% 30.10 in 10.0 mi East 8.1 mph 16.1 mph N/A   Overcast
4:54 AM 54.0 °F 37.0 °F 53% 30.09 in 10.0 mi East 10.4 mph - 0.00 in   Overcast
5:54 AM 52.0 °F 39.9 °F 63% 30.10 in 10.0 mi ENE 6.9 mph - 0.00 in Rain Light Rain
6:24 AM 51.8 °F 42.8 °F 71% 30.10 in 10.0 mi East 5.8 mph - 0.01 in Rain Light Rain
6:51 AM 51.8 °F 42.8 °F 71% 30.10 in 10.0 mi ESE 8.1 mph - 0.01 in   Overcast
6:54 AM 52.0 °F 42.1 °F 69% 30.10 in 10.0 mi SE 11.5 mph 17.3 mph 0.01 in   Overcast
7:54 AM 53.1 °F 44.1 °F 71% 30.12 in 10.0 mi Variable 6.9 mph - N/A   Overcast
8:54 AM 52.0 °F 46.9 °F 83% 30.12 in 10.0 mi East 6.9 mph - 0.00 in   Overcast
9:29 AM 51.8 °F 46.4 °F 82% 30.12 in 10.0 mi ENE 5.8 mph - N/A   Overcast
9:54 AM 51.1 °F 48.0 °F 89% 30.12 in 7.0 mi NE 4.6 mph - 0.00 in   Overcast
10:54 AM 52.0 °F 48.9 °F 89% 30.12 in 3.0 mi ENE 4.6 mph - N/A   Overcast
11:03 AM 51.8 °F 48.2 °F 88% 30.11 in 2.0 mi ENE 5.8 mph - N/A   Overcast
11:14 AM 51.8 °F 48.2 °F 88% 30.11 in 1.8 mi ENE 5.8 mph - N/A   Overcast
11:54 AM 52.0 °F 50.0 °F 93% 30.12 in 1.5 mi ENE 4.6 mph - N/A   Overcast
12:19 PM 53.6 °F 51.8 °F 94% 30.11 in 1.8 mi East 5.8 mph - 0.01 in   Overcast
12:34 PM 53.6 °F 51.8 °F 94% 30.10 in 1.5 mi ENE 6.9 mph - 0.01 in   Overcast
12:54 PM 53.1 °F 51.1 °F 93% 30.11 in 1.8 mi ENE 8.1 mph - 0.01 in   Overcast
1:08 PM 53.6 °F 51.8 °F 94% 30.10 in 2.0 mi ENE 6.9 mph - 0.01 in   Overcast
1:16 PM 53.6 °F 51.8 °F 94% 30.10 in 1.8 mi ENE 8.1 mph - 0.01 in   Overcast
1:37 PM 53.6 °F 51.8 °F 94% 30.10 in 2.5 mi East 6.9 mph - 0.01 in   Overcast
1:54 PM 55.0 °F 52.0 °F 89% 30.10 in 2.5 mi East 5.8 mph - 0.01 in   Overcast
2:14 PM 55.4 °F 53.6 °F 94% 30.09 in 3.0 mi East 5.8 mph - N/A   Overcast
2:22 PM 55.4 °F 53.6 °F 94% 30.09 in 2.5 mi East 5.8 mph - 0.01 in   Overcast
2:29 PM 55.4 °F 53.6 °F 94% 30.09 in 3.0 mi East 6.9 mph - 0.01 in   Overcast
2:54 PM 55.9 °F 53.1 °F 90% 30.09 in 2.5 mi East 5.8 mph - 0.01 in   Overcast
3:42 PM 55.4 °F 53.6 °F 94% 30.07 in 1.8 mi ENE 8.1 mph - 0.00 in Rain Light Rain
3:51 PM 55.4 °F 53.6 °F 94% 30.07 in 1.8 mi East 6.9 mph - 0.00 in Rain Light Rain
3:54 PM 55.0 °F 54.0 °F 96% 30.07 in 1.8 mi East 6.9 mph - 0.00 in Rain Light Rain
4:10 PM 55.4 °F 53.6 °F 94% 30.07 in 2.5 mi East 5.8 mph - 0.01 in Rain Light Rain
4:54 PM 55.9 °F 53.1 °F 90% 30.06 in 2.0 mi East 6.9 mph - 0.01 in   Overcast
5:54 PM 55.9 °F 53.1 °F 90% 30.07 in 3.0 mi East 9.2 mph - 0.00 in Rain Light Rain
6:03 PM 55.4 °F 53.6 °F 94% 30.07 in 3.0 mi East 10.4 mph - 0.01 in Rain Light Rain
6:13 PM 55.4 °F 53.6 °F 94% 30.07 in 2.5 mi ESE 9.2 mph - 0.01 in Rain Rain
6:19 PM 55.4 °F 53.6 °F 94% 30.07 in 1.8 mi East 8.1 mph - 0.02 in Rain Rain
6:28 PM 55.4 °F 53.6 °F 94% 30.07 in 2.5 mi East 8.1 mph - 0.03 in Rain Light Rain
6:54 PM 55.0 °F 54.0 °F 96% 30.07 in 2.5 mi East 8.1 mph - 0.05 in Rain Light Rain
7:54 PM 55.0 °F 53.1 °F 93% 30.08 in 2.0 mi East 8.1 mph - 0.04 in Rain Light Rain
8:19 PM 55.4 °F 53.6 °F 94% 30.08 in 3.0 mi SE 5.8 mph - 0.02 in Rain Light Rain
8:32 PM 55.4 °F 53.6 °F 94% 30.09 in 2.5 mi ESE 10.4 mph - 0.03 in Rain Light Rain
8:47 PM 55.4 °F 53.6 °F 94% 30.10 in 3.0 mi East 6.9 mph - 0.05 in Rain Light Rain
8:54 PM 55.0 °F 54.0 °F 96% 30.10 in 2.5 mi ESE 5.8 mph - 0.06 in Rain Rain
9:01 PM 55.4 °F 53.6 °F 94% 30.10 in 2.5 mi ESE 6.9 mph - 0.01 in Rain Light Rain
9:18 PM 55.4 °F 53.6 °F 94% 30.11 in 3.0 mi ESE 8.1 mph - 0.03 in Rain Light Rain
9:54 PM 55.0 °F 53.1 °F 93% 30.12 in 4.0 mi East 10.4 mph - 0.04 in Rain Light Rain
10:54 PM 55.0 °F 51.1 °F 86% 30.13 in 10.0 mi ENE 8.1 mph - 0.00 in   Overcast
11:54 PM 55.9 °F 51.1 °F 84% 30.13 in 10.0 mi East 11.5 mph - N/A   Overcast